Regional Weather Roundup
Issued by NWS Spokane, WA

Home | Current Version | Previous Version | Text Only | Print | Product List | Glossary On
Versions: 1 2 3 4 5 6 7 8 9 10 11 12 13 14 15 16 17 18 19 20 21 22 23 24 25 26 27 28 29 30 31 32 33 34 35 36 37 38 39 40 41 42 43 44 45 46 47 48 49 50
000
NZUS01 KOTX 311010
RWROTX
EASTERN WASHINGTON/NORTHERN IDAHO ROUNDUP
NATIONAL WEATHER SERVICE, SPOKANE WA
200 AM PST SAT JAN 31 2015

Note: "fair" indicated few or no clouds below 12,000 feet with no
significant weather and/or obstructions to visibility.

...NORTHEAST WASHINGTON AND NORTHERN IDAHO PANHANDLE...

CITY           SKY/WX    TMP DP  RH WIND       PRES   REMARKS
SPOKANE INTL   LGT SNOW  29  28  96 S3        30.22F FOG
SPOKANE DOWNTO CLOUDY    32  29  88 CALM      30.26R
COEUR D ALENE  CLOUDY    30  27  86 SW6       30.22S WCI  24
DEER PARK      CLOUDY    29  28  96 S3        30.24S
SANDPOINT      CLOUDY    32  30  93 SW9       30.22R WCI  24
BONNERS FERRY  CLOUDY    32  28  86 SW7       30.18S WCI  26

...SOUTHEAST WASHINGTON AND SOUTHERN IDAHO PANHANDLE...

CITY           SKY/WX    TMP DP  RH WIND       PRES   REMARKS
WALLA WALLA    CLOUDY    36  33  89 CALM      30.28R
PULLMAN/MOSCOW CLOUDY    30  26  85 CALM      30.24R
LEWISTON       CLOUDY    35  32  88 N5        30.27R
LOWELL           N/A     34  29  82 CALM      30.29R

...COLUMBIA BASIN...

CITY           SKY/WX    TMP DP  RH WIND       PRES   REMARKS
EPHRATA        CLOUDY    35  34  96 S6        30.27R FOG
MOSES LAKE     CLOUDY    34  33  96 SE6       30.28R WCI  29
TRI CITIES     CLOUDY    38  33  82 SW3       30.31R
HERMISTON      CLOUDY    37  34  89 SE3       30.28S
PENDLETON      CLOUDY    34  32  92 N3        30.24S

...EAST SLOPES CASCADES...

CITY           SKY/WX    TMP DP  RH WIND       PRES   REMARKS
THE DALLES     CLOUDY    40  34  79 CALM      30.28F
YAKIMA         CLOUDY    36  31  82 CALM      30.26R
ELLENSBURG     CLOUDY    34  29  82 CALM      30.22R
WENATCHEE      CLOUDY    35  29  78 W7        30.28R WCI  29
OMAK           CLOUDY    33  31  92 N7        30.29R WCI  27

...SOUTHERN BRITISH COLUMBIA...

CITY           SKY/WX    TMP DP  RH WIND       PRES   REMARKS
PENTICTON      CLOUDY    36  28  75 CALM      30.31R
CRANBROOK      LGT SNOW  25  23  93 CALM      30.10F FOG

...WESTERN MONTANA...

CITY           SKY/WX    TMP DP  RH WIND       PRES   REMARKS
MISSOULA       PTCLDY    21  19  92 N3        30.15S

...NEIGHBORING CITIES...

CITY           SKY/WX    TMP DP  RH WIND       PRES   REMARKS
SEATTLE        FOG       39  37  92 N3        30.26R VSB 1/8
CALGARY        SNOW      14  10  85 N20       30.24R VSB 1/2 WCI  -3



USA.gov is the U.S. government's official web portal to all federal, state and local government web resources and services.